[[{"header":{"parameterUnit":"m.s-1","parameterCategory":2,"la1":30.2991,"la2":30.254,"lo1":-89.0895,"lo2":-89.0444,"dy":0.0017,"dx":0.0017,"nx":28,"ny":28,"refTime":"2024-11-30T03:00:00:Z","depth":"0","parameterNumber":2,"parameterNumberName":"U-component_of_CURRENTS"},"data":[0,0,0,0,0,0,0,0,0,0,0,0,0,0,0,0,0,0,0,0,0,0,0,0,0,0,0,0,0,0,0,0,0,0,0,0,0,0,0,0,0,0,0,0,0,0,0,0,0,0,0,0,0,0,0,0,0,0,0.2786,0.2786,0,0.2849,0.2849,0.285,0.2854,0.2853,0.2853,0.2852,0.2864,0.2865,0.2866,0,0,0,0,0,0,0,0,0,0,0,0,0,0.2714,0.2715,0.2785,0.2786,0.2787,0.2849,0.2849,0.285,0.2854,0.2853,0.2852,0.2852,0.2864,0.2865,0.2866,0,0,0,0,0,0,0,0,0,0,0,0,0,0.2756,0.2715,0.2785,0.2798,0.28,0.2848,0.2849,0.285,0.2854,0.2853,0.2852,0.2852,0.2863,0.2865,0.2866,0.289,0,0,0.287,0.287,0,0,0,0,0,0,0,0,0.2753,0.2758,0.2795,0.2797,0.2799,0.2844,0.2829,0.2862,0.2854,0.2832,0.2852,0.2851,0.2854,0.2856,0.2868,0.2891,0.2891,0.287,0.2871,0.2871,0.2871,0,0,0,0,0,0,0,0.275,0.2756,0.2809,0.2796,0.2799,0.2816,0.2821,0.2835,0.2844,0.2833,0.2834,0.2845,0.2855,0.2867,0.2868,0.2891,0.287,0.2871,0.2872,0.2872,0.2971,0.2973,0,0,0,0,0,0,0.2745,0.2753,0.2807,0.2811,0.2776,0.2818,0.2823,0.2829,0.2845,0.2848,0.2845,0.2844,0.2865,0.2867,0.2869,0.2931,0.2871,0.2872,0.2873,0.2969,0.2971,0.2973,0,0,0,0,0,0,0.2743,0.2749,0.2804,0.2785,0.2793,0.282,0.2827,0.2831,0.2846,0.2855,0.2856,0.2857,0.2865,0.2867,0.2902,0.293,0.2873,0.2874,0.2967,0.297,0.2972,0.3034,0,0,0,0,0,0,0.2741,0.2748,0.2752,0.2784,0.2794,0.2844,0.2828,0.2833,0.2855,0.2854,0.2866,0.2866,0.2864,0.29,0.2903,0.293,0.2875,0.2965,0.2968,0.2972,0.3029,0.3038,0.3046,0,0,0,0,0,0.2738,0.2749,0.2752,0.2758,0.2798,0.2846,0.2853,0.2868,0.2856,0.2875,0.2887,0.2866,0.2924,0.2903,0.2906,0.2934,0.2963,0.2967,0.2971,0.3026,0.3037,0.3046,0,0,0,0,0,0,0.2715,0.2751,0.2755,0.2774,0.2812,0.2847,0.2866,0.2873,0.2898,0.2895,0.2892,0.2895,0.2937,0.2931,0.2907,0.2975,0.2939,0.2944,0.298,0.299,0.2998,0.2998,0.2876,0,0,0,0,0,0.2713,0.2733,0.2771,0.2789,0.2808,0.2837,0.2856,0.2871,0.2897,0.2907,0.2917,0.2931,0.2958,0.2969,0.2989,0.3025,0.3041,0.3045,0.3054,0.3061,0.3064,0.3115,0.3128,0.2987,0.2987,0.2987,0,0,0.2707,0.2732,0.2741,0.2786,0.2813,0.2855,0.2847,0.2885,0.2921,0.2904,0.2951,0.2962,0.2976,0.3022,0.3039,0.3018,0.3116,0.3066,0.3072,0.3072,0.3121,0.3134,0.3146,0.299,0.299,0.2989,0,0,0.2718,0.2731,0.2757,0.2794,0.2844,0.287,0.2883,0.2927,0.2947,0.2996,0.2997,0.3027,0.306,0.3083,0.3095,0.3162,0.3161,0.3166,0.3206,0.3255,0.3267,0.3277,0.3344,0.336,0.3167,0.3168,0.3168,0,0.2707,0.2745,0.2773,0.2815,0.2846,0.2878,0.2918,0.2956,0.3006,0.3031,0.3017,0.3088,0.3092,0.3156,0.3178,0.318,0.3213,0.3164,0.3266,0.3276,0.3286,0.3351,0.3368,0.3171,0.3171,0.317,0.317,0,0.2747,0.2778,0.2801,0.2862,0.2901,0.2943,0.2997,0.304,0.3061,0.3094,0.3158,0.3175,0.3216,0.3224,0.3219,0.3294,0.3301,0.3272,0.3238,0.3304,0.3369,0.3385,0.3176,0.3175,0.3174,0.3173,0,0,0.271,0.2807,0.2812,0.2852,0.2927,0.2965,0.3034,0.3106,0.3155,0.3199,0.3259,0.3303,0.331,0.3325,0.3329,0.3364,0.3463,0.3348,0.3349,0.341,0.3598,0.3581,0.3597,0.3454,0.3456,0.3458,0.3626,0,0.2729,0.2809,0.2851,0.2927,0.2974,0.3029,0.3092,0.3162,0.3214,0.3285,0.3319,0.3373,0.3352,0.3371,0.3412,0.3451,0.3504,0.3422,0.3528,0.3531,0.3504,0.3614,0.3544,0.3684,0.3641,0.3644,0.3646,0,0.275,0.2804,0.2873,0.2971,0.2994,0.3042,0.3143,0.3206,0.3312,0.335,0.3415,0.3445,0.3525,0.3478,0.36,0.3553,0.3585,0.3605,0.3612,0.3581,0.3544,0.3606,0.3715,0.3666,0.367,0.3668,0.3667,0,0.2716,0.2817,0.2868,0.2902,0.3016,0.3055,0.3116,0.322,0.3287,0.3392,0.345,0.3538,0.3595,0.365,0.3713,0.3664,0.3843,0.3778,0.3802,0.3802,0.3754,0.3745,0.3819,0.3864,0.3863,0.3863,0.3862,0,0.2718,0.276,0.2859,0.2889,0.2954,0.3042,0.3116,0.3192,0.3315,0.3381,0.3478,0.355,0.3638,0.3747,0.3773,0.3868,0.3906,0.3842,0.3851,0.3777,0.3768,0.3728,0.3682,0.3869,0.3868,0.3866,0.3865,0,0.2667,0.2735,0.2794,0.2903,0.2937,0.2978,0.3105,0.3162,0.3295,0.3388,0.3426,0.3601,0.3731,0.384,0.3951,0.3956,0.3944,0.4045,0.3965,0.396,0.388,0.384,0.3755,0.3628,0.409,0.409,0.4091,0,0.2647,0.2675,0.277,0.2795,0.2837,0.2916,0.2963,0.3115,0.3178,0.3395,0.3432,0.3629,0.3747,0.3973,0.4018,0.4126,0.3984,0.4091,0.3961,0.3902,0.3864,0.3677,0.356,0.3944,0.3943,0.3943,0.3942,0,0.2596,0.2621,0.2667,0.2716,0.276,0.2818,0.2906,0.297,0.3131,0.3251,0.3421,0.3561,0.38,0.3904,0.4067,0.4094,0.3921,0.4078,0.4041,0.3786,0.3565,0.3438,0.3822,0.3937,0.3938,0.3938,0.3939,0.3939,0.2535,0.2541,0.2591,0.2634,0.2675,0.2715,0.2732,0.2847,0.2965,0.3121,0.3307,0.3482,0.3746,0.3975,0.3985,0.3996,0.3877,0.3912,0.3886,0.3714,0.3524,0.3905,0.4,0.4001,0.4001,0.4002,0.4003,0,0.2461,0.2481,0.251,0.2549,0.2548,0.2609,0.2679,0.2686,0.277,0.2975,0.3132,0.3423,0.3624,0.3801,0.3955,0.3856,0.3636,0.3765,0.3504,0.3405,0.3807,0.3734,0.3745,0.3745,0.3746,0.3746,0.3746,0.3746,0.2421,0.2421,0.2443,0.2421,0.2437,0.2407,0.2423,0.2459,0.258,0.2757,0.2926,0.311,0.3535,0.3894,0.3921,0.3803,0.3482,0.3364,0.3277,0.3621,0.3632,0.3642,0.3564,0.354,0.354,0.275,0.2745,0.2741]},{"header":{"parameterUnit":"m.s-1","parameterCategory":2,"la1":30.2991,"la2":30.254,"lo1":-89.0895,"lo2":-89.0444,"dy":0.0017,"dx":0.0017,"nx":28,"ny":28,"refTime":"2024-11-30T03:00:00:Z","depth":"0","parameterNumber":3,"parameterNumberName":"V-component_of_CURRENTS"},"data":[0,0,0,0,0,0,0,0,0,0,0,0,0,0,0,0,0,0,0,0,0,0,0,0,0,0,0,0,0,0,0,0,0,0,0,0,0,0,0,0,0,0,0,0,0,0,0,0,0,0,0,0,0,0,0,0,0,0,-0.0209,-0.0209,0,-0.0292,-0.0293,-0.0294,-0.0355,-0.0355,-0.0355,-0.0356,-0.048,-0.0483,-0.0486,0,0,0,0,0,0,0,0,0,0,0,0,0,-0.0176,-0.0176,-0.0209,-0.0209,-0.021,-0.0292,-0.0293,-0.0294,-0.0355,-0.0355,-0.0355,-0.0356,-0.0479,-0.0482,-0.0486,0,0,0,0,0,0,0,0,0,0,0,0,0,-0.022,-0.0176,-0.0209,-0.0248,-0.0253,-0.0291,-0.0293,-0.0295,-0.0355,-0.0355,-0.0356,-0.0356,-0.0477,-0.0482,-0.0486,-0.0506,0,0,-0.05,-0.0502,0,0,0,0,0,0,0,0,-0.0217,-0.0221,-0.0242,-0.0246,-0.025,-0.0311,-0.0327,-0.0366,-0.0355,-0.0319,-0.0356,-0.0356,-0.0425,-0.0434,-0.0452,-0.0512,-0.0517,-0.0501,-0.0503,-0.0505,-0.0507,0,0,0,0,0,0,0,-0.0214,-0.0219,-0.0244,-0.0242,-0.0248,-0.0287,-0.0294,-0.0335,-0.0371,-0.0322,-0.0326,-0.0331,-0.0428,-0.0447,-0.0455,-0.0519,-0.05,-0.0505,-0.0507,-0.0509,-0.062,-0.062,0,0,0,0,0,0,-0.0194,-0.0215,-0.0241,-0.0246,-0.0232,-0.0287,-0.0294,-0.0293,-0.037,-0.0381,-0.033,-0.0333,-0.0439,-0.045,-0.046,-0.0499,-0.0505,-0.051,-0.0512,-0.0619,-0.062,-0.062,0,0,0,0,0,0,-0.0193,-0.0196,-0.0238,-0.0231,-0.0239,-0.0286,-0.0285,-0.0295,-0.0313,-0.0376,-0.0388,-0.0338,-0.044,-0.0453,-0.05,-0.0503,-0.0512,-0.0516,-0.0619,-0.062,-0.062,-0.0569,0,0,0,0,0,0,-0.0192,-0.0195,-0.0189,-0.0229,-0.0239,-0.0254,-0.0285,-0.0296,-0.0314,-0.0319,-0.0386,-0.0398,-0.0441,-0.0493,-0.0505,-0.051,-0.0519,-0.0619,-0.0619,-0.062,-0.0571,-0.0568,-0.0565,0,0,0,0,0,-0.019,-0.0176,-0.0188,-0.0192,-0.0229,-0.0253,-0.0262,-0.0299,-0.0313,-0.0318,-0.0369,-0.0396,-0.0504,-0.0497,-0.0511,-0.0517,-0.0619,-0.0619,-0.062,-0.0572,-0.0568,-0.0565,0,0,0,0,0,0,-0.0159,-0.0182,-0.0196,-0.019,-0.0216,-0.0262,-0.0267,-0.0292,-0.0335,-0.034,-0.0402,-0.0418,-0.046,-0.0494,-0.0485,-0.055,-0.0565,-0.0568,-0.0523,-0.0521,-0.0518,-0.0498,-0.0523,0,0,0,0,0,-0.0148,-0.0145,-0.0176,-0.0172,-0.0179,-0.0222,-0.0236,-0.0261,-0.0302,-0.0321,-0.0369,-0.0422,-0.0472,-0.0499,-0.0545,-0.058,-0.06,-0.0593,-0.059,-0.0588,-0.0581,-0.0625,-0.0626,-0.0621,-0.0621,-0.0621,0,0,-0.0135,-0.0147,-0.0146,-0.0166,-0.0188,-0.0195,-0.0232,-0.0246,-0.026,-0.0327,-0.0361,-0.0414,-0.0479,-0.0522,-0.0543,-0.0551,-0.0594,-0.0588,-0.0585,-0.058,-0.0626,-0.0626,-0.0626,-0.0622,-0.0622,-0.0622,0,0,-0.0107,-0.0116,-0.0104,-0.0121,-0.0145,-0.0171,-0.017,-0.0212,-0.0237,-0.0275,-0.033,-0.0383,-0.0452,-0.0505,-0.054,-0.0549,-0.0578,-0.0562,-0.0536,-0.0579,-0.0579,-0.058,-0.0579,-0.058,-0.0562,-0.0562,-0.0562,0,-0.009,-0.008,-0.0106,-0.0101,-0.0107,-0.0154,-0.0146,-0.018,-0.0235,-0.0255,-0.0276,-0.0388,-0.0445,-0.0507,-0.0516,-0.0543,-0.0556,-0.0541,-0.0574,-0.0575,-0.0577,-0.0576,-0.0578,-0.0559,-0.0559,-0.056,-0.056,0,-0.0057,-0.005,-0.0043,-0.0051,-0.0063,-0.0063,-0.0104,-0.0126,-0.016,-0.0201,-0.0261,-0.0344,-0.0408,-0.044,-0.0486,-0.0529,-0.0528,-0.0563,-0.0578,-0.0574,-0.0573,-0.0576,-0.0556,-0.0557,-0.0557,-0.0558,0,0,-0.0011,-0.0017,-0.0013,-0.0005,-0.0033,-0.0037,-0.0057,-0.0089,-0.0089,-0.0169,-0.018,-0.0298,-0.034,-0.0383,-0.0449,-0.0497,-0.0521,-0.053,-0.0534,-0.0519,-0.0581,-0.0531,-0.0529,-0.0563,-0.0564,-0.0564,-0.0565,0,0.0025,0.0053,0.0035,0.0057,0.0069,0.0027,0.0022,-0.0017,-0.0057,-0.008,-0.0185,-0.0223,-0.0319,-0.0338,-0.0409,-0.0484,-0.053,-0.0515,-0.0595,-0.0596,-0.0546,-0.0533,-0.0518,-0.0515,-0.0568,-0.0569,-0.0569,0,0.0067,0.008,0.0115,0.0124,0.0128,0.0134,0.0129,0.0115,0.0059,0.0027,-0.0048,-0.0113,-0.0203,-0.0274,-0.0418,-0.04,-0.0488,-0.0554,-0.0556,-0.053,-0.0553,-0.0534,-0.0518,-0.0721,-0.0574,-0.0574,-0.0573,0,0.012,0.0137,0.0171,0.0172,0.0174,0.0186,0.0184,0.015,0.017,0.0102,0.012,-0.0019,-0.0039,-0.0197,-0.0333,-0.0377,-0.0457,-0.0537,-0.0577,-0.0573,-0.0586,-0.0581,-0.0769,-0.0642,-0.0642,-0.0642,-0.0642,0,0.017,0.0197,0.0205,0.0225,0.0284,0.0253,0.0311,0.0282,0.0284,0.0334,0.0187,0.022,-0.0019,-0.0091,-0.0271,-0.0397,-0.0412,-0.0558,-0.0574,-0.0564,-0.0557,-0.0755,-0.0888,-0.0642,-0.0642,-0.0642,-0.0642,0,0.0228,0.0229,0.0274,0.0295,0.0316,0.0355,0.042,0.0463,0.0441,0.0509,0.0503,0.0423,0.0333,0.012,-0.0084,-0.0265,-0.0535,-0.0471,-0.0413,-0.0423,-0.0676,-0.0805,-0.0999,-0.1096,-0.0535,-0.0534,-0.0533,0,0.026,0.0292,0.0344,0.0396,0.0415,0.0478,0.054,0.054,0.0611,0.0654,0.0717,0.066,0.067,0.0408,0.007,-0.0206,-0.0447,-0.0391,-0.05,-0.0672,-0.0831,-0.0937,-0.1013,-0.0492,-0.0491,-0.049,-0.0489,0,0.0333,0.0352,0.0399,0.0509,0.0584,0.0672,0.0766,0.0861,0.0889,0.0987,0.1125,0.1146,0.0876,0.0633,0.0233,-0.0005,-0.0544,-0.0377,-0.0599,-0.084,-0.0928,-0.1031,-0.0481,-0.048,-0.0481,-0.0481,-0.0482,-0.0482,0.04,0.0456,0.0535,0.0647,0.0739,0.0886,0.1012,0.114,0.1325,0.1516,0.148,0.1576,0.1109,0.058,0.0225,-0.0423,-0.0471,-0.0638,-0.0783,-0.0874,-0.0976,-0.0368,-0.0361,-0.0361,-0.0361,-0.0362,-0.0362,0,0.0497,0.0572,0.0676,0.0825,0.0967,0.0985,0.119,0.1348,0.163,0.1787,0.1944,0.1773,0.123,0.0593,-0.028,-0.0743,-0.0975,-0.1012,-0.121,-0.1273,-0.0766,-0.0773,-0.08,-0.08,-0.08,-0.08,-0.08,-0.0799,0.0558,0.0688,0.075,0.1017,0.1132,0.1355,0.1499,0.1731,0.1906,0.2173,0.2241,0.2228,0.1717,0.014,-0.0924,-0.1182,-0.1565,-0.1628,-0.1805,-0.1513,-0.1491,-0.147,-0.1509,-0.1691,-0.1692,-0.2259,-0.2265,-0.2269]}],[{"header":{"parameterUnit":"m.s-1","parameterCategory":2,"la1":30.2991,"la2":30.254,"lo1":-89.0895,"lo2":-89.0444,"dy":0.0017,"dx":0.0017,"nx":28,"ny":28,"refTime":"2024-11-30T03:00:00:Z","depth":"2","parameterNumber":2,"parameterNumberName":"U-component_of_CURRENTS"},"data":[0,0,0,0,0,0,0,0,0,0,0,0,0,0,0,0,0,0,0,0,0,0,0,0,0,0,0,0,0,0,0,0,0,0,0,0,0,0,0,0,0,0,0,0,0,0,0,0,0,0,0,0,0,0,0,0,0,0,0.2367,0.2367,0,0.2426,0.2427,0.2427,0.244,0.244,0.2439,0.2439,0.2476,0.2478,0.2479,0,0,0,0,0,0,0,0,0,0,0,0,0,0.2293,0.2294,0.2367,0.2367,0.2368,0.2426,0.2427,0.2428,0.2441,0.244,0.2439,0.2439,0.2476,0.2477,0.2479,0,0,0,0,0,0,0,0,0,0,0,0,0,0.2337,0.2294,0.2367,0.2381,0.2382,0.2426,0.2427,0.2428,0.2441,0.244,0.2439,0.2438,0.2475,0.2477,0.2479,0.2509,0,0,0.2486,0.2487,0,0,0,0,0,0,0,0,0.2334,0.2339,0.2378,0.238,0.2382,0.2424,0.2414,0.2454,0.2441,0.242,0.2439,0.2438,0.2456,0.246,0.2475,0.2511,0.2513,0.2487,0.2488,0.2489,0.2489,0,0,0,0,0,0,0,0.2331,0.2337,0.2391,0.2379,0.2381,0.2393,0.2398,0.2422,0.2442,0.2422,0.2422,0.2427,0.2457,0.2473,0.2476,0.2513,0.2486,0.2488,0.249,0.2491,0.2624,0.2626,0,0,0,0,0,0,0.2321,0.2334,0.2389,0.2393,0.2354,0.2395,0.2401,0.2412,0.2443,0.2446,0.2428,0.2428,0.247,0.2473,0.2477,0.2548,0.2489,0.2491,0.2492,0.2622,0.2624,0.2627,0,0,0,0,0,0,0.2319,0.2326,0.2387,0.2363,0.2372,0.2397,0.241,0.2414,0.2439,0.2448,0.2451,0.245,0.2469,0.2474,0.2517,0.2548,0.2492,0.2494,0.2619,0.2622,0.2625,0.2667,0,0,0,0,0,0,0.2317,0.2325,0.2337,0.2363,0.2373,0.2423,0.241,0.2415,0.2442,0.2443,0.2468,0.2469,0.2469,0.2514,0.2519,0.255,0.2496,0.2616,0.262,0.2624,0.2663,0.2671,0.2678,0,0,0,0,0,0.2314,0.233,0.2338,0.2344,0.2387,0.2424,0.2432,0.2446,0.2444,0.2465,0.2484,0.2469,0.2544,0.2518,0.2523,0.2555,0.2614,0.2619,0.2624,0.2659,0.2669,0.2678,0,0,0,0,0,0,0.2298,0.2333,0.2342,0.2366,0.2398,0.2426,0.2448,0.2457,0.2491,0.2492,0.2496,0.2501,0.2552,0.2554,0.2525,0.2609,0.2577,0.2584,0.2602,0.2612,0.262,0.2673,0.2498,0,0,0,0,0,0.2302,0.2325,0.236,0.2379,0.2401,0.2429,0.2448,0.2459,0.2487,0.2501,0.2518,0.2543,0.2578,0.2593,0.2621,0.2665,0.2684,0.2692,0.27,0.2706,0.2756,0.2803,0.282,0.2643,0.2643,0.2643,0,0,0.2299,0.2321,0.2333,0.2378,0.2406,0.2446,0.244,0.2475,0.2512,0.25,0.2558,0.2573,0.2598,0.2649,0.2671,0.2652,0.2761,0.2712,0.2717,0.2766,0.281,0.2827,0.2843,0.2646,0.2645,0.2645,0,0,0.2306,0.2331,0.2358,0.2393,0.2438,0.2461,0.2475,0.2517,0.2546,0.2598,0.2604,0.2649,0.2687,0.2722,0.2741,0.2816,0.2803,0.2811,0.2891,0.2934,0.2949,0.2963,0.298,0.2995,0.2811,0.2811,0.2811,0,0.2302,0.2338,0.2371,0.2412,0.2444,0.2472,0.2514,0.2554,0.2602,0.2636,0.2623,0.2725,0.2733,0.282,0.285,0.2835,0.2849,0.2843,0.2944,0.2958,0.2971,0.2986,0.3002,0.2814,0.2813,0.2813,0.2813,0,0.2334,0.2368,0.239,0.2452,0.2496,0.2533,0.2593,0.2638,0.2668,0.2703,0.2795,0.2828,0.2887,0.2894,0.2901,0.3004,0.2978,0.2945,0.2915,0.2992,0.3002,0.3018,0.2817,0.2816,0.2816,0.2815,0,0,0.2309,0.2395,0.2403,0.244,0.252,0.2556,0.2636,0.2716,0.2768,0.283,0.2912,0.2993,0.3012,0.3042,0.3051,0.311,0.3195,0.3081,0.3082,0.3092,0.3282,0.3208,0.3217,0.3172,0.3176,0.3179,0.324,0,0.2324,0.2393,0.244,0.2512,0.2559,0.2622,0.2692,0.2769,0.2831,0.2913,0.2989,0.3066,0.3065,0.3098,0.3161,0.3192,0.3246,0.3183,0.3216,0.3218,0.3137,0.3237,0.3014,0.3046,0.3255,0.3257,0.3259,0,0.2343,0.2388,0.2457,0.2549,0.2578,0.2626,0.2743,0.2811,0.2934,0.299,0.3091,0.3138,0.3262,0.3235,0.3357,0.3313,0.3325,0.3344,0.3345,0.3289,0.3176,0.3012,0.3067,0.3286,0.3284,0.3282,0.328,0,0.2311,0.2401,0.2452,0.2485,0.2594,0.2643,0.2708,0.2828,0.2904,0.3049,0.3113,0.324,0.3312,0.3377,0.3423,0.3395,0.3537,0.3475,0.3426,0.3418,0.3248,0.322,0.3578,0.3578,0.3578,0.3577,0.3577,0,0.2307,0.2346,0.2438,0.2466,0.2534,0.2628,0.2715,0.2801,0.2941,0.3018,0.3148,0.3231,0.3359,0.3439,0.3464,0.3503,0.3558,0.349,0.3454,0.3251,0.3224,0.345,0.3434,0.358,0.3579,0.3579,0.3578,0,0.2259,0.2318,0.2374,0.2481,0.2517,0.2566,0.2709,0.2766,0.2914,0.3025,0.3082,0.3256,0.3357,0.3457,0.3557,0.354,0.3584,0.3575,0.3326,0.3261,0.3422,0.3409,0.3537,0.3536,0.3534,0.3533,0.3532,0,0.2239,0.2262,0.2362,0.2388,0.2432,0.2521,0.2572,0.2733,0.2801,0.301,0.305,0.3221,0.3303,0.3446,0.3474,0.3526,0.3564,0.3314,0.3238,0.348,0.3431,0.3419,0.3407,0.3009,0.3003,0.2999,0.2996,0,0.2191,0.2222,0.2266,0.2319,0.2367,0.2434,0.2527,0.2579,0.2748,0.2851,0.2975,0.3075,0.324,0.3218,0.3309,0.329,0.3292,0.3229,0.3567,0.3055,0.2987,0.2937,0.2941,0.2959,0.2962,0.2965,0.2967,0.2969,0.2143,0.2152,0.2202,0.2242,0.2299,0.2338,0.2349,0.2445,0.2536,0.2657,0.2801,0.2876,0.2981,0.3021,0.2958,0.2923,0.3134,0.2999,0.301,0.3026,0.2956,0.2889,0.2828,0.2831,0.2833,0.2836,0.2838,0,0.2084,0.2096,0.2124,0.2159,0.2166,0.224,0.2305,0.2284,0.232,0.2467,0.2567,0.2453,0.2499,0.2584,0.2506,0.2536,0.2486,0.241,0.2329,0.2371,0.2407,0.2301,0.2003,0.1999,0.1996,0.1993,0,0,0.2049,0.2043,0.2053,0.2024,0.2044,0.2029,0.204,0.2027,0.2104,0.211,0.2157,0.2396,0.2537,0.2231,0.2223,0.2096,0.2198,0.2015,0.27,0.2648,0.2679,0.2783,0.2673,0,0,0,0,0]},{"header":{"parameterUnit":"m.s-1","parameterCategory":2,"la1":30.2991,"la2":30.254,"lo1":-89.0895,"lo2":-89.0444,"dy":0.0017,"dx":0.0017,"nx":28,"ny":28,"refTime":"2024-11-30T03:00:00:Z","depth":"2","parameterNumber":3,"parameterNumberName":"V-component_of_CURRENTS"},"data":[0,0,0,0,0,0,0,0,0,0,0,0,0,0,0,0,0,0,0,0,0,0,0,0,0,0,0,0,0,0,0,0,0,0,0,0,0,0,0,0,0,0,0,0,0,0,0,0,0,0,0,0,0,0,0,0,0,0,-0.0052,-0.0052,0,-0.0114,-0.0115,-0.0116,-0.0166,-0.0166,-0.0166,-0.0167,-0.0264,-0.0266,-0.0268,0,0,0,0,0,0,0,0,0,0,0,0,0,-0.0025,-0.0025,-0.0051,-0.0052,-0.0053,-0.0114,-0.0115,-0.0116,-0.0166,-0.0166,-0.0167,-0.0167,-0.0263,-0.0266,-0.0268,0,0,0,0,0,0,0,0,0,0,0,0,0,-0.0059,-0.0025,-0.0051,-0.0083,-0.0086,-0.0114,-0.0115,-0.0117,-0.0166,-0.0166,-0.0167,-0.0167,-0.0262,-0.0265,-0.0269,-0.0282,0,0,-0.0279,-0.0281,0,0,0,0,0,0,0,0,-0.0057,-0.0061,-0.0078,-0.0081,-0.0085,-0.0131,-0.0142,-0.0173,-0.0166,-0.0138,-0.0167,-0.0167,-0.022,-0.0227,-0.0241,-0.0286,-0.0291,-0.028,-0.0282,-0.0283,-0.0284,0,0,0,0,0,0,0,-0.0055,-0.0058,-0.0079,-0.0078,-0.0082,-0.0111,-0.0116,-0.0148,-0.0179,-0.0141,-0.0144,-0.0147,-0.0223,-0.0238,-0.0244,-0.0292,-0.028,-0.0283,-0.0285,-0.0286,-0.0363,-0.0363,0,0,0,0,0,0,-0.0039,-0.0056,-0.0077,-0.008,-0.0069,-0.0111,-0.0117,-0.0117,-0.0178,-0.0186,-0.0146,-0.0149,-0.0231,-0.024,-0.0247,-0.0257,-0.0283,-0.0286,-0.0288,-0.0363,-0.0363,-0.0363,0,0,0,0,0,0,-0.0038,-0.004,-0.0074,-0.0068,-0.0074,-0.011,-0.0111,-0.0118,-0.0133,-0.0181,-0.0191,-0.0153,-0.0232,-0.0243,-0.0272,-0.0262,-0.0288,-0.0291,-0.0363,-0.0363,-0.0363,-0.0282,0,0,0,0,0,0,-0.0037,-0.004,-0.0037,-0.0067,-0.0074,-0.0081,-0.0111,-0.0119,-0.0133,-0.0137,-0.0191,-0.02,-0.0233,-0.0266,-0.0275,-0.0267,-0.0294,-0.0363,-0.0363,-0.0363,-0.0285,-0.028,-0.0275,0,0,0,0,0,-0.0036,-0.0023,-0.0037,-0.0039,-0.0068,-0.008,-0.0086,-0.0116,-0.0133,-0.0133,-0.0171,-0.0198,-0.0273,-0.0269,-0.028,-0.0272,-0.0363,-0.0363,-0.0363,-0.0288,-0.0281,-0.0275,0,0,0,0,0,0,-0.001,-0.0027,-0.0043,-0.0037,-0.0054,-0.0087,-0.0089,-0.0111,-0.0142,-0.0147,-0.0197,-0.0209,-0.0232,-0.0265,-0.026,-0.0296,-0.0323,-0.0325,-0.0262,-0.0256,-0.0251,-0.0254,-0.0297,0,0,0,0,0,-0.0002,0.0002,-0.0022,-0.0017,-0.0023,-0.0057,-0.0067,-0.0085,-0.0114,-0.0129,-0.0165,-0.0207,-0.024,-0.0257,-0.0292,-0.0309,-0.0344,-0.0313,-0.0308,-0.0303,-0.0314,-0.0359,-0.0358,-0.0363,-0.0363,-0.0363,0,0,0.0009,0.0001,0.0002,-0.0011,-0.003,-0.0024,-0.0065,-0.0071,-0.0071,-0.0134,-0.0148,-0.019,-0.0242,-0.0261,-0.0274,-0.0286,-0.0314,-0.0303,-0.0298,-0.0313,-0.0359,-0.0358,-0.0358,-0.0362,-0.0362,-0.0362,0,0,0.0043,0.0027,0.0043,0.0034,0.0018,0.0,0.0002,-0.0028,-0.0047,-0.0066,-0.0111,-0.0149,-0.0196,-0.0231,-0.0255,-0.0245,-0.0286,-0.0253,-0.0228,-0.027,-0.027,-0.027,-0.0283,-0.0286,-0.0248,-0.0248,-0.0248,0,0.0056,0.0076,0.0046,0.006,0.0063,0.0018,0.0039,0.0014,-0.0022,-0.003,-0.006,-0.0137,-0.0183,-0.021,-0.0215,-0.0232,-0.0257,-0.0241,-0.0262,-0.0263,-0.0265,-0.0279,-0.0283,-0.0244,-0.0245,-0.0245,-0.0246,0,0.0102,0.0118,0.0128,0.0134,0.0128,0.0141,0.0109,0.01,0.0069,0.0042,0.0004,-0.007,-0.0113,-0.0136,-0.018,-0.021,-0.0221,-0.0248,-0.0272,-0.026,-0.0275,-0.028,-0.0239,-0.024,-0.0241,-0.0242,0,0,0.014,0.016,0.0164,0.0185,0.0172,0.0178,0.0178,0.0171,0.0182,0.0115,0.0114,0.0024,-0.0023,-0.0057,-0.0114,-0.017,-0.0203,-0.0218,-0.0222,-0.0221,-0.0277,-0.0285,-0.0292,-0.0233,-0.0234,-0.0235,-0.027,0,0.0189,0.0243,0.0234,0.0283,0.0309,0.0277,0.0286,0.0268,0.024,0.0226,0.0131,0.0101,0.0012,-0.001,-0.008,-0.017,-0.0219,-0.019,-0.0299,-0.0302,-0.0304,-0.03,-0.028,-0.031,-0.0276,-0.0276,-0.0277,0,0.0239,0.0272,0.0331,0.0371,0.0379,0.0394,0.0411,0.0412,0.0374,0.035,0.029,0.0221,0.0132,0.005,-0.0102,-0.0079,-0.0178,-0.026,-0.0263,-0.031,-0.0322,-0.0326,-0.0322,-0.0287,-0.0286,-0.0285,-0.0285,0,0.029,0.0343,0.0397,0.0408,0.0438,0.0455,0.0463,0.0448,0.047,0.0422,0.043,0.0314,0.0267,0.0114,-0.0061,-0.0081,-0.0228,-0.0262,-0.036,-0.036,-0.0388,-0.0388,-0.038,-0.038,-0.038,-0.038,-0.038,0,0.0352,0.0396,0.0426,0.0457,0.0523,0.0511,0.0569,0.0562,0.0567,0.0606,0.0492,0.0491,0.0272,0.0164,-0.0013,-0.0192,-0.0183,-0.0361,-0.0379,-0.0355,-0.0353,-0.0378,-0.0378,-0.0381,-0.0381,-0.038,-0.038,0,0.0401,0.042,0.0488,0.0533,0.055,0.0591,0.0648,0.0695,0.0682,0.0729,0.0718,0.0629,0.0488,0.028,0.0051,-0.0105,-0.029,-0.0358,-0.0303,-0.0315,-0.0403,-0.0398,-0.0463,-0.0463,-0.0464,-0.0465,-0.0465,0,0.0432,0.0471,0.0543,0.059,0.0613,0.0672,0.0724,0.0744,0.0805,0.0817,0.0854,0.0741,0.0676,0.0358,0.0058,-0.022,-0.0274,-0.0383,-0.0438,-0.0405,-0.0416,-0.041,-0.0404,-0.0426,-0.0426,-0.0426,-0.0427,0,0.0491,0.0511,0.0569,0.0666,0.0731,0.0814,0.0889,0.0959,0.099,0.1026,0.1056,0.1003,0.0713,0.0435,0.0058,-0.0145,-0.034,-0.0394,-0.0378,-0.0409,-0.0375,-0.0384,-0.0379,-0.0427,-0.0427,-0.0427,-0.0427,-0.0427,0.0529,0.0581,0.0655,0.0748,0.0834,0.0944,0.102,0.1106,0.1199,0.126,0.1212,0.1144,0.0832,0.0353,0.0016,-0.0339,-0.0336,-0.0467,-0.0465,-0.0464,-0.0454,-0.0423,-0.0481,-0.0481,-0.0482,-0.0482,-0.0482,0,0.0575,0.0638,0.0733,0.0845,0.0947,0.0982,0.113,0.1197,0.1307,0.1363,0.1372,0.108,0.0771,0.0415,-0.0104,-0.0417,-0.0456,-0.0519,-0.0494,-0.0491,-0.0488,-0.048,-0.0515,-0.0515,-0.0516,-0.0517,0,0,0.0601,0.0696,0.0749,0.0916,0.0999,0.1138,0.1225,0.1321,0.1395,0.1426,0.1402,0.1329,0.0898,0.0526,0.0092,-0.0203,-0.0279,-0.0273,-0.0216,-0.0133,-0.0127,-0.0431,-0.0411,0,0,0,0,0]}],[{"header":{"parameterUnit":"m.s-1","parameterCategory":2,"la1":30.2991,"la2":30.254,"lo1":-89.0895,"lo2":-89.0444,"dy":0.0017,"dx":0.0017,"nx":28,"ny":28,"refTime":"2024-11-30T03:00:00:Z","depth":"4","parameterNumber":2,"parameterNumberName":"U-component_of_CURRENTS"},"data":[0,0,0,0,0,0,0,0,0,0,0,0,0,0,0,0,0,0,0,0,0,0,0,0,0,0,0,0,0,0,0,0,0,0,0,0,0,0,0,0,0,0,0,0,0,0,0,0,0,0,0,0,0,0,0,0,0,0,0.148,0.1481,0,0.1543,0.1543,0.1544,0.16,0.1601,0.1602,0.1603,0.1668,0.1669,0.167,0,0,0,0,0,0,0,0,0,0,0,0,0,0.1387,0.1388,0.148,0.1481,0.1482,0.1543,0.1543,0.1544,0.16,0.1601,0.1602,0.1603,0.1668,0.1669,0.167,0,0,0,0,0,0,0,0,0,0,0,0,0,0.1434,0.1389,0.148,0.1519,0.1523,0.1542,0.1543,0.1544,0.16,0.1601,0.1603,0.1604,0.1668,0.1669,0.167,0.1653,0,0,0.1675,0.1675,0,0,0,0,0,0,0,0,0.1432,0.1437,0.1512,0.1516,0.1521,0.1567,0.1535,0.1581,0.16,0.1569,0.1603,0.1605,0.1635,0.1639,0.1645,0.1656,0.1659,0.1675,0.1676,0.1676,0.1677,0,0,0,0,0,0,0,0.1428,0.1435,0.1503,0.1513,0.1519,0.1526,0.1534,0.1543,0.1592,0.1572,0.1576,0.1586,0.1637,0.1644,0.1647,0.166,0.1675,0.1676,0.1677,0.1677,0.1762,0.1763,0,0,0,0,0,0,0.1425,0.1432,0.1501,0.1505,0.1481,0.1527,0.1536,0.1549,0.1592,0.1601,0.1585,0.1589,0.1641,0.1645,0.165,0.1722,0.1676,0.1678,0.1678,0.176,0.1762,0.1763,0,0,0,0,0,0,0.1422,0.143,0.1498,0.1471,0.1481,0.1527,0.1542,0.155,0.1591,0.1603,0.1611,0.1622,0.1642,0.1648,0.1688,0.1722,0.1678,0.168,0.1759,0.1761,0.1763,0.1809,0,0,0,0,0,0,0.1419,0.1429,0.1452,0.1471,0.1482,0.153,0.1541,0.155,0.1594,0.16,0.1636,0.1642,0.1643,0.1686,0.1689,0.1723,0.1681,0.1757,0.176,0.1762,0.1806,0.1812,0.1818,0,0,0,0,0,0.1416,0.1432,0.1452,0.1462,0.1507,0.1531,0.1537,0.1572,0.1595,0.1614,0.1643,0.1643,0.1705,0.1688,0.1691,0.1726,0.1756,0.1759,0.1762,0.1803,0.1811,0.1818,0,0,0,0,0,0,0.1403,0.144,0.1463,0.1491,0.1521,0.1542,0.1567,0.1589,0.1627,0.1645,0.1655,0.1662,0.1712,0.1711,0.1691,0.1759,0.1732,0.1736,0.1762,0.177,0.1776,0.1782,0.1682,0,0,0,0,0,0.141,0.1436,0.1469,0.1495,0.1514,0.1547,0.1568,0.1594,0.1622,0.1643,0.1665,0.1694,0.1721,0.174,0.1759,0.179,0.1802,0.1817,0.1823,0.1829,0.1837,0.189,0.1902,0.1774,0.1774,0.1774,0,0,0.1411,0.1437,0.1453,0.1495,0.1523,0.1549,0.1564,0.1605,0.1636,0.1641,0.1695,0.1717,0.1735,0.1776,0.1798,0.1783,0.187,0.1833,0.1837,0.1842,0.1894,0.1907,0.1918,0.1776,0.1775,0.1775,0,0,0.1413,0.1453,0.1474,0.1502,0.1552,0.1571,0.1591,0.1632,0.1666,0.1712,0.1729,0.177,0.1809,0.1826,0.1839,0.1889,0.1903,0.1906,0.1943,0.1994,0.2005,0.2015,0.2041,0.2052,0.1908,0.1909,0.1909,0,0.1418,0.1449,0.1483,0.151,0.1538,0.1584,0.1612,0.1646,0.1697,0.1728,0.174,0.1815,0.183,0.1878,0.1905,0.1904,0.1934,0.1911,0.2003,0.2013,0.2022,0.2046,0.2058,0.1911,0.1911,0.1911,0.191,0,0.1429,0.1466,0.1481,0.1532,0.1564,0.1598,0.1646,0.1692,0.174,0.1773,0.1846,0.1869,0.1918,0.193,0.1938,0.2013,0.2013,0.2005,0.1983,0.2038,0.2059,0.2071,0.1915,0.1914,0.1913,0.1912,0,0,0.1402,0.1475,0.1483,0.1514,0.1583,0.1605,0.1668,0.173,0.1782,0.1837,0.1903,0.1951,0.1984,0.2002,0.2018,0.2061,0.215,0.2075,0.2077,0.2098,0.2266,0.2146,0.2147,0.2174,0.2177,0.2179,0.2252,0,0.1404,0.1453,0.1491,0.1542,0.1572,0.1636,0.1687,0.1754,0.182,0.1894,0.1943,0.2013,0.2006,0.2052,0.2095,0.2143,0.2187,0.2131,0.2211,0.2213,0.2098,0.2158,0.2187,0.2261,0.2264,0.2266,0.2267,0,0.1393,0.1434,0.1484,0.1559,0.158,0.1621,0.172,0.1774,0.1885,0.1942,0.202,0.2073,0.2153,0.2145,0.2243,0.2219,0.2257,0.2278,0.2281,0.2161,0.2115,0.2197,0.2289,0.2287,0.2286,0.2284,0.2283,0,0.1343,0.1421,0.1463,0.1489,0.1582,0.1629,0.1691,0.1797,0.1861,0.1992,0.206,0.2146,0.2224,0.2276,0.2336,0.2316,0.2439,0.2405,0.2321,0.2312,0.2377,0.2366,0.2482,0.2482,0.2482,0.2482,0.2482,0,0.1309,0.1344,0.1452,0.1471,0.1536,0.1617,0.1701,0.1776,0.1904,0.1985,0.2093,0.2165,0.2274,0.2356,0.2377,0.2387,0.2474,0.2339,0.2331,0.2393,0.2383,0.2385,0.2373,0.2485,0.2484,0.2484,0.2483,0,0.1235,0.1304,0.1355,0.1467,0.151,0.1561,0.1703,0.1763,0.1897,0.2013,0.2069,0.2224,0.2327,0.2401,0.25,0.2435,0.2452,0.2437,0.2505,0.2497,0.2276,0.2266,0.2332,0.2329,0.2326,0.2323,0.2321,0,0.1196,0.1219,0.1338,0.1378,0.1435,0.1532,0.1598,0.1743,0.1811,0.2023,0.2066,0.224,0.2325,0.2351,0.2436,0.246,0.2439,0.2418,0.2333,0.228,0.2266,0.2259,0.2253,0.2317,0.2316,0.2315,0.2314,0,0.1122,0.1177,0.1218,0.131,0.1382,0.1457,0.1569,0.161,0.1784,0.1922,0.2029,0.2104,0.2223,0.2284,0.2337,0.2343,0.2405,0.2386,0.2391,0.2312,0.2261,0.2249,0.2246,0.2304,0.2306,0.2307,0.2307,0,0.1068,0.1081,0.1153,0.1222,0.131,0.1367,0.1434,0.1531,0.162,0.1852,0.1885,0.2061,0.2209,0.2227,0.2265,0.2274,0.2232,0.2139,0.2155,0.2168,0.208,0.199,0.1955,0,0,0,0,0,0.1011,0.1021,0.1071,0.1135,0.1219,0.1281,0.1409,0.1482,0.1651,0.1684,0.1783,0.1885,0.1978,0.2061,0.2039,0.2187,0.2232,0.215,0.213,0.2248,0.2259,0.2172,0,0,0,0,0,0,0.0968,0.1007,0.1031,0.1055,0.1092,0.1177,0.1256,0.1371,0.1395,0.1574,0.1633,0.177,0.1881,0.1978,0.2004,0.2029,0.1977,0.2256,0.2251,0.2241,0.2252,0.2261,0.2175,0,0,0,0,0]},{"header":{"parameterUnit":"m.s-1","parameterCategory":2,"la1":30.2991,"la2":30.254,"lo1":-89.0895,"lo2":-89.0444,"dy":0.0017,"dx":0.0017,"nx":28,"ny":28,"refTime":"2024-11-30T03:00:00:Z","depth":"4","parameterNumber":3,"parameterNumberName":"V-component_of_CURRENTS"},"data":[0,0,0,0,0,0,0,0,0,0,0,0,0,0,0,0,0,0,0,0,0,0,0,0,0,0,0,0,0,0,0,0,0,0,0,0,0,0,0,0,0,0,0,0,0,0,0,0,0,0,0,0,0,0,0,0,0,0,0.0041,0.004,0,0.0007,0.0007,0.0006,-0.0026,-0.0027,-0.0027,-0.0028,-0.0082,-0.0083,-0.0084,0,0,0,0,0,0,0,0,0,0,0,0,0,0.0054,0.0054,0.0041,0.004,0.004,0.0007,0.0007,0.0006,-0.0026,-0.0027,-0.0027,-0.0028,-0.0082,-0.0083,-0.0084,0,0,0,0,0,0,0,0,0,0,0,0,0,0.0037,0.0054,0.0041,0.002,0.0018,0.0007,0.0007,0.0006,-0.0026,-0.0027,-0.0027,-0.0028,-0.0081,-0.0083,-0.0084,-0.0083,0,0,-0.0089,-0.009,0,0,0,0,0,0,0,0,0.0038,0.0036,0.0024,0.0022,0.0019,-0.0006,-0.0008,-0.0024,-0.0026,-0.001,-0.0028,-0.0028,-0.0058,-0.0061,-0.0067,-0.0085,-0.0088,-0.0089,-0.009,-0.0091,-0.0092,0,0,0,0,0,0,0,0.0039,0.0038,0.0027,0.0023,0.0021,0.0005,0.0002,-0.0012,-0.0031,-0.0011,-0.0014,-0.0016,-0.0059,-0.0065,-0.0068,-0.0088,-0.0089,-0.0091,-0.0092,-0.0092,-0.0109,-0.0108,0,0,0,0,0,0,0.0046,0.0039,0.0028,0.0026,0.0028,0.0005,0.0002,0.0003,-0.003,-0.0036,-0.0016,-0.0018,-0.0062,-0.0066,-0.007,-0.0057,-0.0091,-0.0093,-0.0094,-0.0109,-0.0109,-0.0108,0,0,0,0,0,0,0.0047,0.0046,0.0029,0.0032,0.0029,0.0006,0.0007,0.0002,-0.0005,-0.0033,-0.0039,-0.0019,-0.0062,-0.0068,-0.0077,-0.006,-0.0093,-0.0095,-0.011,-0.0109,-0.0108,-0.0039,0,0,0,0,0,0,0.0047,0.0046,0.0048,0.0032,0.0029,0.0031,0.0007,0.0002,-0.0005,-0.0008,-0.0038,-0.0043,-0.0063,-0.0074,-0.0079,-0.0063,-0.0096,-0.0111,-0.011,-0.0109,-0.0042,-0.0036,-0.0031,0,0,0,0,0,0.0048,0.006,0.0049,0.0047,0.0033,0.0031,0.0028,0.0009,-0.0005,-0.0001,-0.0022,-0.0042,-0.0071,-0.0075,-0.008,-0.0064,-0.0111,-0.011,-0.0109,-0.0045,-0.0037,-0.0031,0,0,0,0,0,0,0.0067,0.0057,0.0045,0.0052,0.0044,0.0026,0.0028,0.0013,-0.0,-0.0005,-0.0035,-0.0041,-0.0045,-0.0065,-0.0068,-0.0067,-0.0095,-0.0095,-0.0044,-0.0038,-0.0032,-0.0013,-0.0097,0,0,0,0,0,0.0072,0.0078,0.0064,0.0069,0.0067,0.0047,0.0042,0.003,0.0016,0.001,-0.0011,-0.0031,-0.0043,-0.0048,-0.0066,-0.0062,-0.0098,-0.0056,-0.005,-0.0045,-0.0034,-0.0073,-0.0069,-0.0104,-0.0104,-0.0104,0,0,0.0081,0.0076,0.0079,0.0074,0.0064,0.0076,0.0043,0.0042,0.0053,0.0006,0.0013,-0.0015,-0.004,-0.0037,-0.004,-0.005,-0.0058,-0.0044,-0.0039,-0.003,-0.0071,-0.0068,-0.0065,-0.0103,-0.0103,-0.0104,0,0,0.0109,0.0097,0.0114,0.0113,0.0105,0.0096,0.0098,0.0083,0.0076,0.0077,0.0046,0.0033,0.0013,0.0003,-0.0005,0.0022,-0.003,0.0012,0.0062,0.0024,0.0027,0.0029,-0.0026,-0.0029,0.002,0.002,0.002,0,0.0119,0.0139,0.0119,0.0137,0.0144,0.011,0.0135,0.0127,0.011,0.0111,0.0088,0.0063,0.0037,0.0048,0.0056,0.0037,-0.0004,0.004,0.0032,0.0033,0.0034,-0.0022,-0.0027,0.0023,0.0023,0.0022,0.0022,0,0.0162,0.0178,0.019,0.0204,0.0208,0.0223,0.0212,0.0211,0.0194,0.0182,0.0179,0.0144,0.0128,0.0119,0.0096,0.0097,0.0059,0.0039,0.0017,0.0042,-0.0019,-0.0025,0.0028,0.0027,0.0026,0.0025,0,0,0.0186,0.0216,0.0221,0.0243,0.0246,0.0258,0.0276,0.0286,0.0298,0.0273,0.0285,0.0262,0.0229,0.0218,0.0183,0.0157,0.0119,0.0106,0.0102,0.0057,0.0017,-0.0001,-0.0011,0.0093,0.0093,0.0093,-0.0032,0,0.0227,0.0282,0.0284,0.0338,0.0365,0.035,0.0375,0.0375,0.0359,0.0357,0.032,0.0313,0.0271,0.026,0.0229,0.0144,0.0108,0.0154,-0.0003,-0.0008,-0.0023,-0.0016,0.0092,-0.0037,-0.0039,-0.004,-0.004,0,0.027,0.0303,0.0364,0.0412,0.0423,0.0449,0.0476,0.0491,0.0476,0.0461,0.0441,0.0398,0.0362,0.0316,0.0198,0.0224,0.013,0.0063,0.0056,0.0015,-0.0036,-0.0066,-0.0052,-0.0051,-0.0051,-0.005,-0.0049,0,0.0304,0.0361,0.0415,0.043,0.0474,0.0501,0.0521,0.0523,0.054,0.052,0.0517,0.0463,0.0424,0.0321,0.0176,0.0181,0.0027,0.0011,-0.0093,-0.0097,-0.0074,-0.0075,-0.0073,-0.0073,-0.0073,-0.0073,-0.0072,0,0.0348,0.0391,0.0436,0.0468,0.0533,0.0544,0.0599,0.0604,0.0611,0.063,0.0571,0.0559,0.0421,0.0316,0.0188,0.0024,0.0028,-0.0082,-0.0123,-0.0045,-0.004,-0.008,-0.0079,-0.0077,-0.0076,-0.0075,-0.0075,0,0.0373,0.0403,0.0468,0.0528,0.0552,0.0593,0.0653,0.0684,0.0683,0.0701,0.0697,0.0616,0.0476,0.0325,0.0136,0.0037,-0.0114,-0.0177,-0.0094,-0.0129,-0.0217,-0.0211,-0.0294,-0.0296,-0.0297,-0.0298,-0.0299,0,0.039,0.0425,0.0508,0.0546,0.0576,0.064,0.0684,0.0715,0.0742,0.0732,0.0738,0.0623,0.0546,0.027,0.0104,-0.0141,-0.0173,-0.0256,-0.0215,-0.0204,-0.0237,-0.0229,-0.0221,-0.0301,-0.0302,-0.0302,-0.0302,0,0.0414,0.0442,0.0493,0.0574,0.0633,0.0702,0.0763,0.079,0.0815,0.082,0.0767,0.0636,0.0471,0.0266,0.0067,-0.0104,-0.0197,-0.027,-0.0268,-0.023,-0.0214,-0.0243,-0.0234,-0.0307,-0.0306,-0.0306,-0.0306,0,0.0422,0.0456,0.0519,0.0588,0.0666,0.0732,0.0773,0.0802,0.0831,0.0823,0.0797,0.0635,0.0542,0.0282,0.0102,-0.007,-0.0105,-0.0149,-0.0153,-0.0151,-0.0066,-0.0022,-0.0088,0,0,0,0,0,0.042,0.0455,0.0525,0.0601,0.068,0.0726,0.0808,0.0839,0.0867,0.0838,0.0822,0.0673,0.0415,0.0303,0.0127,0.0067,-0.0146,-0.0145,-0.02,-0.0332,-0.0327,-0.0253,0,0,0,0,0,0,0.0415,0.0476,0.0516,0.0597,0.0646,0.0734,0.0789,0.0815,0.0802,0.0805,0.067,0.0621,0.0367,0.0506,0.0117,0.0065,0.0007,-0.0261,-0.0265,-0.0335,-0.033,-0.0326,-0.0248,0,0,0,0,0]}]]